OMA2007 OOMS-OOMS

Flight info

Callsign OMA2007
Flight time 0h 15m
Altitude 9000
Route MURMA DCT MS500 DCT MS615 DCT MS605 DCT MS505 DCT D286L DCT CD08L DCT ITLAK
Aircraft B38M/M-SDE1FGHILORVWXY/HB1

Departure

Time 2026-05-07 22:45
Airport Muscat International Airport (OOMS)

Arrival

Time 2026-05-07 23:00
Airport Muscat International Airport (OOMS)
Time Latitude Longitude Altitude Speed Heading
2026-05-07 22:23 23.60493 58.28934 35 ft 0 kts 84°
2026-05-07 22:38 23.60491 58.28910 35 ft 4 kts 84°
2026-05-07 22:38 23.60489 58.28884 34 ft 2 kts 84°
2026-05-07 22:39 23.60481 58.28861 35 ft 4 kts 40°
2026-05-07 22:39 23.60458 58.28851 36 ft 4 kts
2026-05-07 22:39 23.60435 58.28851 33 ft 1 kts 355°
2026-05-07 22:43 23.60457 58.28849 36 ft 6 kts 355°
2026-05-07 22:43 23.60516 58.28843 37 ft 11 kts 355°
2026-05-07 22:43 23.60577 58.28864 37 ft 6 kts 56°
2026-05-07 22:44 23.60882 58.29409 37 ft 0 kts 265°
2026-05-07 22:45 23.60881 58.29400 37 ft 5 kts 265°
2026-05-07 22:45 23.60846 58.28974 38 ft 112 kts 265°
2026-05-07 22:45 23.60739 58.27765 128 ft 200 kts 265°
2026-05-07 22:45 23.60531 58.26124 1047 ft 241 kts 257°
2026-05-07 22:46 23.60281 58.24160 1098 ft 257 kts 264°
2026-05-07 22:46 23.60139 58.22321 1323 ft 240 kts 265°
2026-05-07 22:46 23.60007 58.20571 2578 ft 218 kts 266°
2026-05-07 22:46 23.59885 58.18886 3912 ft 231 kts 267°
2026-05-07 22:47 23.59755 58.17073 4997 ft 248 kts 267°
2026-05-07 22:47 23.59617 58.15139 6137 ft 262 kts 267°
2026-05-07 22:47 23.59472 58.13113 7273 ft 274 kts 266°
2026-05-07 22:47 23.59320 58.10996 8376 ft 288 kts 266°
2026-05-07 22:48 23.59163 58.08792 8802 ft 294 kts 265°
2026-05-07 22:48 23.59003 58.06560 8952 ft 296 kts 265°
2026-05-07 22:48 23.58844 58.04315 9016 ft 297 kts 265°
2026-05-07 22:48 23.58692 58.02069 9019 ft 297 kts 265°
2026-05-07 22:49 23.58565 57.99825 9020 ft 297 kts 271°
2026-05-07 22:49 23.59081 57.97694 9024 ft 296 kts 301°
2026-05-07 22:49 23.60532 57.96141 9033 ft 295 kts 332°
2026-05-07 22:49 23.62499 57.95620 9033 ft 294 kts
2026-05-07 22:50 23.64462 57.96205 9046 ft 294 kts 26°
2026-05-07 22:50 23.66167 57.97423 9033 ft 294 kts 43°
2026-05-07 22:50 23.67311 57.99230 9017 ft 291 kts 71°
2026-05-07 22:50 23.67529 58.01409 9027 ft 291 kts 98°
2026-05-07 22:51 23.67152 58.03581 9014 ft 292 kts 97°
2026-05-07 22:51 23.66984 58.05790 9020 ft 292 kts 95°
2026-05-07 22:51 23.66809 58.07998 9014 ft 293 kts 95°
2026-05-07 22:51 23.66618 58.10212 9011 ft 293 kts 96°
2026-05-07 22:52 23.66416 58.12419 9004 ft 293 kts 96°
2026-05-07 22:52 23.66209 58.14632 9006 ft 293 kts 96°
2026-05-07 22:52 23.66044 58.16844 8996 ft 293 kts 88°
2026-05-07 22:52 23.66334 58.19023 8837 ft 288 kts 77°
2026-05-07 22:53 23.66783 58.21143 8597 ft 286 kts 76°
2026-05-07 22:53 23.67233 58.23255 8348 ft 285 kts 76°
2026-05-07 22:53 23.67670 58.25359 8101 ft 285 kts 77°
2026-05-07 22:53 23.68102 58.27466 7860 ft 284 kts 77°
2026-05-07 22:54 23.68529 58.29571 7620 ft 284 kts 77°
2026-05-07 22:54 23.68950 58.31669 7379 ft 284 kts 77°
2026-05-07 22:54 23.69368 58.33776 7143 ft 284 kts 77°
2026-05-07 22:54 23.69780 58.35882 6906 ft 284 kts 77°
2026-05-07 22:55 23.70187 58.37998 6666 ft 285 kts 76°
2026-05-07 22:55 23.70464 58.40110 6424 ft 286 kts 87°
2026-05-07 22:55 23.70228 58.42255 6174 ft 288 kts 109°
2026-05-07 22:55 23.69188 58.44103 5925 ft 287 kts 134°
2026-05-07 22:56 23.67691 58.45536 5675 ft 286 kts 149°
2026-05-07 22:56 23.65873 58.46336 5438 ft 281 kts 169°
2026-05-07 22:56 23.63935 58.46813 4794 ft 293 kts 173°
2026-05-07 22:56 23.61883 58.46779 3999 ft 301 kts 197°
2026-05-07 22:57 23.60044 58.45816 3806 ft 285 kts 221°
2026-05-07 22:57 23.58797 58.44251 3576 ft 266 kts 248°
2026-05-07 22:57 23.58650 58.42988 3359 ft 253 kts 282°
2026-05-07 22:57 23.59379 58.41254 2878 ft 246 kts 300°
2026-05-07 22:58 23.60239 58.39749 2587 ft 224 kts 298°
2026-05-07 22:58 23.60799 58.38196 1977 ft 217 kts 285°
2026-05-07 22:58 23.61119 58.36617 1382 ft 211 kts 278°
2026-05-07 22:58 23.61220 58.35098 1083 ft 188 kts 270°
2026-05-07 22:59 23.61195 58.33761 803 ft 165 kts 268°
2026-05-07 22:59 23.61123 58.32600 586 ft 144 kts 263°
2026-05-07 22:59 23.61045 58.31544 355 ft 136 kts 264°
2026-05-07 22:59 23.60959 58.30541 208 ft 130 kts 263°
2026-05-07 23:00 23.60888 58.29572 73 ft 126 kts 265°
2026-05-07 23:00 23.60822 58.28650 39 ft 118 kts 264°
2026-05-07 23:00 23.60752 58.27825 36 ft 100 kts 265°
2026-05-07 23:00 23.60706 58.27228 38 ft 45 kts 262°
2026-05-07 23:01 23.60617 58.26986 39 ft 31 kts 238°
2026-05-07 23:01 23.60537 58.26857 37 ft 34 kts 232°
2026-05-07 23:01 23.60465 58.26786 37 ft 9 kts 201°
2026-05-07 23:01 23.60417 58.26807 37 ft 7 kts 117°
2026-05-07 23:02 23.60411 58.26863 37 ft 9 kts 93°